Snowfall_Accumulation
0.0 0.0 0.0 0.0 0.0 0.0 0.0 0.0 0.0 0.0 0.0 0.0 0.0 0.0 0.0 0.0 0.0 0.0 0.0 0.0 0.0 0.0 0.0 0.0 0.0 0.0 0.2 0.1 0.1 0.0 0.0 0.0 0.7 0.8 0.5 0.3 0.6 0.4 0.3 0.3 0.4 0.1 0.2
0.0 0.0 0.0 0.0 0.0 0.0 0.0 0.0 0.0 0.0 0.0 0.0 0.0 0.0 0.0 0.0 0.0 0.0 0.0 0.0 0.0 0.0 0.0 0.0 0.0 0.0 0.0 0.0 0.2 0.0 0.0 0.1 0.6 0.8 0.7 1.9 1.1 0.6 0.5 0.3 0.1 0.0 0.5
0.0 0.0 0.0 0.0 0.1 0.5 1.3 0.5 0.1 0.6 0.6 0.1 0.0 0.0 0.1 0.1 0.1 0.0 0.0 0.1 0.0 0.0 0.0 0.0 0.0 0.0 0.0 0.2 0.1 0.2 0.3 0.1 0.4 1.3 2.3 1.4 2.2 1.6 1.8 1.6 1.0 0.5 0.1
0.0 0.0 0.1 0.2 0.1 0.6 1.7 3.2 3.0 1.4 1.0 0.7 0.4 0.8 0.9 0.8 0.3 0.5 0.1 0.1 0.2 0.2 0.1 0.1 0.0 0.0 0.0 0.0 0.0 0.1 0.1 0.5 0.6 1.1 1.6 2.0 1.9 2.3 1.7 2.1 3.3 2.6 2.3
0.1 1.3 3.1 1.5 1.4 2.8 4.9 5.1 4.4 2.9 2.1 2.7 2.4 1.8 1.4 0.6 0.1 0.1 0.1 0.1 0.2 0.3 0.3 0.1 0.1 0.0 nan nan 0.2 0.2 0.1 0.4 0.8 1.0 1.4 1.4 1.5 2.4 2.5 2.3 3.9 4.0 4.8
1.8 5.8 4.8 5.1 4.6 5.0 7.7 6.9 6.0 5.0 4.8 3.9 2.8 2.2 1.6 0.2 nan nan 0.1 0.1 0.2 0.2 0.4 0.3 0.1 0.1 0.0 nan nan nan nan 0.1 0.2 1.0 1.0 0.8 0.6 1.2 1.7 2.3 3.1 5.9 7.7
5.2 7.2 8.0 8.7 7.1 7.7 7.1 7.0 6.3 5.2 3.8 4.8 3.5 1.7 1.7 0.4 nan nan nan 0.3 0.3 0.3 0.3 0.2 0.2 0.1 0.1 0.1 nan nan nan nan nan 0.1 0.2 0.4 0.8 0.5 0.5 1.4 2.1 3.3 4.2
6.9 7.8 7.5 8.2 7.3 6.5 6.7 6.5 6.3 4.0 4.6 2.9 3.1 2.7 1.8 1.2 nan nan nan 0.7 0.9 1.3 0.6 0.5 0.2 0.2 0.1 0.1 0.1 0.1 0.1 0.2 0.1 0.1 0.1 0.2 0.2 0.3 0.3 0.5 1.7 3.0 4.7
8.4 7.8 7.7 6.5 8.2 7.5 7.6 7.5 4.6 2.7 1.7 2.6 2.5 2.6 1.5 3.2 nan nan 0.7 1.7 1.4 2.2 2.3 1.3 1.0 0.7 nan nan 0.3 1.0 1.0 0.5 nan nan nan nan nan nan nan 3.1 10.8 14.2 9.5
6.5 6.8 6.4 5.9 5.5 7.0 4.7 5.8 5.5 2.6 2.9 2.1 2.0 2.0 1.4 2.0 nan nan nan 1.5 1.5 2.9 3.0 3.0 1.8 0.8 nan nan 1.7 1.8 4.3 3.3 1.8 2.8 1.8 1.2 nan nan nan 1.4 3.4 10.8 8.1
3.1 3.8 4.4 3.6 3.7 3.0 2.2 1.7 2.1 2.5 2.6 2.9 2.7 1.9 2.5 1.6 2.2 nan nan 2.0 3.6 3.7 3.6 4.3 3.4 nan nan nan nan 3.0 3.3 3.2 4.9 4.6 6.6 7.1 5.1 3.6 4.2 3.8 3.3 4.7 8.8
1.5 1.7 2.2 2.3 1.6 1.4 1.3 0.7 1.7 1.0 0.9 2.4 2.1 2.5 2.1 1.5 nan nan nan nan nan 2.8 2.9 3.3 3.6 nan nan nan 2.7 nan nan 2.6 6.3 7.2 6.5 6.7 8.3 7.2 6.3 7.4 6.9 6.2 5.8
1.7 3.1 2.7 2.2 1.7 1.4 1.1 0.5 1.5 0.3 1.3 0.5 1.9 2.0 1.7 2.1 1.5 nan nan nan nan 1.6 1.5 2.1 nan nan nan nan nan nan 1.2 5.4 6.9 8.6 7.3 6.5 5.0 4.3 4.8 6.3 5.1 4.4 4.2
3.5 2.1 1.3 1.5 0.8 0.9 1.3 1.4 2.0 2.1 2.1 2.2 2.8 2.6 1.8 1.8 1.2 1.1 1.4 0.7 0.6 1.9 nan 1.9 nan 1.4 nan nan 1.8 2.2 3.4 4.0 4.5 5.9 6.8 5.3 5.1 7.6 7.8 5.6 6.6 5.7 9.1
3.2 1.5 1.1 1.9 2.1 1.4 1.3 1.8 1.6 0.5 1.5 4.1 5.3 3.9 5.8 5.5 2.8 0.9 2.8 3.2 3.0 3.5 4.5 6.5 6.0 4.7 4.8 4.3 4.7 5.1 5.3 5.4 6.4 6.7 7.7 8.2 8.7 8.1 7.4 5.7 6.3 7.7 9.2
2.3 3.2 2.7 2.8 2.4 2.1 2.2 2.3 nan nan nan nan nan 2.3 3.6 nan nan nan nan nan nan nan 11.9 12.9 7.4 6.0 5.7 5.9 7.5 7.8 7.7 7.1 7.1 8.4 9.7 9.1 10.4 9.4 9.2 9.5 8.7 9.5 10.7
5.2 3.8 4.5 4.0 3.7 3.9 3.9 4.1 6.4 3.2 nan nan nan nan nan nan nan nan nan nan nan nan 17.7 10.2 9.7 7.3 6.9 6.7 7.2 8.0 9.8 8.3 6.9 9.3 9.2 9.8 10.7 11.1 11.8 10.8 9.4 8.7 11.5
5.2 2.1 4.5 4.3 4.0 4.6 4.6 4.8 5.2 6.8 8.4 6.6 nan nan nan nan nan nan nan nan 16.2 nan 12.4 15.0 15.0 11.8 10.4 9.7 8.5 10.5 11.1 10.8 10.1 9.5 9.8 12.2 14.1 15.1 15.1 14.6 11.5 13.8 13.4
6.6 5.0 5.5 5.2 4.8 5.1 6.4 5.4 5.4 6.8 7.5 9.1 9.6 7.7 3.6 nan nan nan nan 10.1 15.6 14.6 14.2 14.7 12.0 12.4 11.1 11.7 11.1 12.7 13.3 14.4 13.2 15.8 15.7 16.7 15.7 16.7 17.0 13.4 12.2 7.9 8.7
9.1 3.9 5.8 8.6 8.3 7.8 6.7 9.4 9.0 9.6 11.5 12.4 12.1 10.5 11.4 11.6 15.0 14.1 10.2 13.6 15.3 14.7 13.3 14.9 14.6 16.3 17.4 17.0 16.6 15.9 18.6 19.7 18.4 18.0 17.7 17.5 16.8 17.6 15.0 18.0 16.3 15.7 16.1
13.8 12.6 3.9 12.4 13.5 13.7 13.6 12.8 12.3 15.1 14.1 15.4 13.0 10.8 nan 14.7 18.3 16.2 16.9 15.2 15.3 16.6 15.9 16.6 17.5 21.4 21.7 23.8 21.5 22.0 22.5 16.5 18.8 20.0 20.5 20.6 20.4 26.4 16.5 13.6 17.6 18.4 18.2
16.4 17.3 17.5 18.3 15.2 16.2 17.6 14.9 16.5 16.5 17.0 16.1 14.9 13.9 nan 13.5 14.5 15.5 15.9 17.6 19.5 18.7 20.4 26.1 25.9 27.2 24.8 23.9 22.6 22.2 21.5 23.1 23.8 22.9 19.9 21.0 23.6 22.3 21.5 18.1 18.4 17.3 20.3
16.1 15.4 16.3 16.8 16.2 7.8 17.8 20.1 20.0 20.4 20.2 21.4 20.4 21.7 21.8 22.0 19.8 19.1 22.1 22.4 19.1 18.7 20.9 22.7 22.3 23.2 20.9 22.5 20.2 20.0 23.8 24.3 23.9 28.6 24.7 24.6 24.5 26.0 24.3 23.3 21.5 24.7 23.2
16.3 16.3 16.3 19.6 19.1 18.3 19.8 20.6 19.4 7.8 21.6 23.0 28.5 26.9 23.0 25.5 28.3 22.1 21.2 21.5 18.9 25.3 20.5 22.0 20.1 20.2 21.3 26.3 29.7 28.6 30.1 31.2 32.8 31.0 29.7 25.6 24.5 20.8 23.8 26.0 22.5 21.6 20.7
20.9 20.1 19.8 19.0 23.1 21.5 20.7 23.0 20.5 23.8 25.7 23.5 26.3 23.7 24.4 23.9 24.9 28.8 26.4 22.7 22.5 20.4 18.7 18.6 18.8 19.3 20.1 21.1 25.2 27.4 25.6 5.2 19.3 5.5 29.6 25.1 26.8 26.3 26.3 24.3 23.0 22.1 20.3
20.7 21.3 21.6 21.9 22.0 22.6 22.8 22.5 22.8 20.8 23.3 24.1 24.0 25.0 23.8 24.1 24.1 25.5 25.2 25.0 21.1 19.9 19.1 19.8 20.0 19.5 19.6 19.9 20.7 7.8 5.0 4.5 25.2 4.9 28.9 27.5 27.2 25.2 25.1 25.0 23.8 23.2 20.4
Water_Equivalent
0.00 0.00 0.00 0.00 0.00 0.00 0.00 0.00 0.00 0.00 0.00 0.00 0.00 0.00 0.00 0.00 0.00 0.00 0.00 0.00 0.00 0.00 0.00 0.00 0.00 0.00 0.06 0.05 0.02 0.00 0.00 0.00 0.21 0.30 0.20 0.12 0.25 0.15 0.13 0.12 0.16 0.05 0.08
0.00 0.00 0.00 0.00 0.00 0.00 0.01 0.01 0.00 0.02 0.00 0.01 0.01 0.01 0.00 0.00 0.00 0.00 0.01 0.01 0.01 0.02 0.01 0.01 0.01 0.00 0.00 0.00 0.07 0.00 0.01 0.02 0.19 0.19 0.22 0.69 0.39 0.18 0.16 0.10 0.05 0.02 0.18
0.00 0.00 0.00 0.02 0.03 0.17 0.46 0.18 0.05 0.23 0.24 0.04 0.02 0.02 0.03 0.04 0.04 0.02 0.02 0.02 0.02 0.02 0.01 0.01 0.01 0.01 0.01 0.10 0.04 0.10 0.12 0.03 0.15 0.40 0.66 0.50 0.72 0.55 0.57 0.55 0.34 0.14 0.04
0.01 0.01 0.03 0.06 0.05 0.21 0.63 1.20 1.14 0.58 0.39 0.28 0.15 0.32 0.37 0.32 0.12 0.20 0.04 0.05 0.07 0.06 0.04 0.02 0.01 0.01 0.01 0.01 0.02 0.02 0.03 0.17 0.21 0.33 0.46 0.58 0.54 0.69 0.53 0.60 0.83 0.67 0.64
0.04 0.43 0.94 0.50 0.45 0.87 1.48 1.55 1.38 1.06 0.78 0.96 0.83 0.59 0.45 0.21 0.04 0.05 0.04 0.04 0.05 0.10 0.10 0.04 0.02 0.01 nan nan 0.08 0.06 0.04 0.11 0.26 0.28 0.34 0.33 0.34 0.51 0.54 0.65 0.89 0.87 1.03
0.55 1.42 1.34 1.49 1.38 1.34 1.87 1.48 1.31 1.12 1.29 1.03 0.79 0.64 0.47 0.06 nan nan 0.02 0.03 0.05 0.07 0.11 0.10 0.05 0.03 0.02 nan nan nan nan 0.03 0.06 0.28 0.27 0.19 0.12 0.31 0.42 0.54 0.66 1.16 1.30
1.28 1.97 2.19 2.21 1.53 1.62 1.54 1.53 1.25 1.02 0.98 1.10 0.79 0.44 0.47 0.14 nan nan nan 0.08 0.08 0.07 0.07 0.06 0.07 0.03 0.03 0.03 nan nan nan nan nan 0.02 0.06 0.10 0.15 0.11 0.10 0.25 0.39 0.63 0.73
1.63 1.80 1.74 1.88 1.48 1.36 1.32 1.24 1.41 0.97 1.17 0.73 0.82 0.68 0.47 0.46 nan nan nan 0.18 0.22 0.29 0.14 0.12 0.06 0.05 0.02 0.02 0.02 0.03 0.03 0.04 0.03 0.02 0.04 0.05 0.05 0.07 0.08 0.11 0.30 0.44 0.80
1.77 1.65 1.63 1.38 1.63 1.36 1.26 1.37 0.96 0.55 0.36 0.52 0.61 0.62 0.37 0.86 nan nan 0.19 0.38 0.29 0.51 0.54 0.38 0.25 0.19 nan nan 0.06 0.20 0.20 0.11 nan nan nan nan nan nan nan 0.68 2.34 2.89 1.84
1.22 1.32 1.29 1.19 1.13 1.11 0.78 0.93 1.12 0.57 0.61 0.48 0.40 0.42 0.42 0.48 nan nan nan 0.38 0.33 0.62 0.61 0.64 0.57 0.23 nan nan 0.36 0.35 0.75 0.61 0.33 0.59 0.33 0.23 nan nan nan 0.25 0.72 2.10 1.50
0.56 0.69 0.80 0.68 0.69 0.56 0.41 0.33 0.36 0.41 0.45 0.48 0.41 0.35 0.46 0.37 0.50 nan nan 0.49 0.84 0.74 0.72 0.85 0.72 nan nan nan nan 0.55 0.51 0.53 0.79 0.74 0.97 1.16 0.79 0.53 0.68 0.58 0.49 0.84 1.59
0.26 0.29 0.36 0.40 0.28 0.28 0.26 0.13 0.29 0.17 0.15 0.31 0.31 0.49 0.44 0.25 nan nan nan nan nan 0.58 0.52 0.63 0.72 nan nan nan 0.66 nan nan 0.66 1.32 1.39 1.18 1.04 1.02 0.89 0.77 0.88 0.72 0.73 0.74
0.31 0.60 0.52 0.40 0.32 0.26 0.25 0.11 0.41 0.09 0.32 0.10 0.41 0.42 0.36 0.41 0.36 nan nan nan nan 0.38 0.33 0.42 nan nan nan nan nan nan 0.40 1.07 1.32 1.56 1.08 0.81 0.60 0.51 0.47 0.68 0.50 0.43 0.42
0.74 0.36 0.21 0.26 0.18 0.18 0.36 0.39 0.56 0.50 0.45 0.49 0.59 0.58 0.41 0.42 0.29 0.29 0.44 0.25 0.18 0.52 nan 0.46 nan 0.33 nan nan 0.47 0.50 0.67 0.76 0.77 0.91 0.92 0.66 0.64 0.92 0.90 0.65 0.84 0.71 1.19
0.51 0.20 0.20 0.37 0.41 0.25 0.26 0.44 0.38 0.14 0.41 0.97 1.27 0.90 1.20 1.15 0.61 0.23 0.79 0.93 0.87 0.94 1.21 1.49 1.29 0.93 0.91 0.80 0.95 0.97 0.92 0.90 1.02 1.02 1.07 1.08 1.10 1.02 0.92 0.72 0.79 1.03 1.29
0.29 0.48 0.47 0.49 0.42 0.37 0.39 0.43 nan nan nan nan nan 0.68 1.08 nan nan nan nan nan nan nan 2.79 2.62 1.26 1.00 0.86 0.90 1.15 1.08 1.04 1.09 0.97 1.13 1.29 1.24 1.33 1.15 1.12 1.26 1.17 1.29 1.36
0.71 0.44 0.61 0.55 0.51 0.57 0.62 0.68 0.87 0.60 nan nan nan nan nan nan nan nan nan nan nan nan 4.11 1.93 1.61 1.14 1.13 1.06 1.13 1.06 1.19 1.02 0.74 1.18 1.12 1.22 1.35 1.46 1.61 1.40 1.21 1.11 1.58
0.67 0.70 0.69 0.64 0.63 0.72 0.75 0.79 0.89 1.06 1.21 0.96 nan nan nan nan nan nan nan nan 3.84 nan 2.83 2.97 2.56 2.05 1.65 1.53 1.28 1.32 1.34 1.29 1.20 1.19 1.24 1.70 2.01 2.15 2.09 2.05 1.56 1.95 1.83
0.78 0.64 0.73 0.71 0.68 0.76 0.94 0.78 0.82 0.95 1.02 1.25 1.24 1.27 0.98 nan nan nan nan 2.34 3.17 2.75 2.69 2.79 2.27 2.16 1.77 1.89 1.78 2.05 1.78 1.89 1.73 2.28 2.32 2.51 2.32 2.49 2.51 1.86 1.59 1.43 1.51
1.02 0.99 0.88 1.11 1.04 0.97 0.79 1.11 1.00 1.08 1.30 1.43 1.41 1.22 1.92 2.25 2.87 2.91 2.32 3.23 3.32 2.95 2.50 2.72 2.70 3.03 3.19 3.01 2.93 2.71 2.80 2.99 2.71 2.70 2.66 2.62 2.50 2.70 1.98 2.61 2.31 2.05 2.28
1.59 1.39 1.30 1.34 1.54 1.58 1.59 1.43 1.32 1.73 1.57 1.78 1.44 1.34 nan 2.37 2.48 2.68 2.97 2.76 3.06 3.31 2.76 2.98 3.15 4.06 4.19 4.68 3.94 3.84 3.51 2.26 2.78 3.03 3.20 3.18 3.13 4.03 2.43 1.78 2.47 2.62 2.56
1.83 1.96 1.97 2.08 1.56 1.71 1.96 1.52 1.72 1.74 1.75 1.61 1.44 1.56 nan 1.91 2.11 2.16 2.42 3.00 3.59 3.66 4.09 4.83 4.75 5.13 4.54 4.23 3.82 3.61 3.02 3.41 3.66 3.41 2.79 2.96 3.48 3.11 3.10 2.32 2.43 2.18 2.76
1.63 1.46 1.59 1.64 1.59 1.69 1.83 2.20 2.08 2.10 2.01 2.20 2.06 2.15 2.36 2.77 2.58 2.56 3.43 3.66 3.05 2.94 3.38 3.70 3.51 3.43 3.15 3.47 3.05 2.90 3.09 3.29 3.32 4.40 3.21 3.26 3.19 3.60 3.30 3.04 2.74 3.15 2.99
1.52 1.53 1.53 2.03 1.88 1.69 1.97 2.08 1.86 1.82 2.09 2.30 3.34 2.91 2.12 2.59 3.38 2.61 2.65 3.03 2.60 4.03 3.03 3.27 2.79 2.71 2.87 4.08 5.05 4.89 5.22 5.46 5.22 4.79 4.38 3.17 3.04 2.68 2.81 3.25 2.64 2.56 2.25
2.01 1.80 1.81 1.70 2.45 2.07 1.94 2.32 1.82 2.42 2.78 2.34 2.79 2.23 2.29 2.18 2.37 3.17 3.00 2.60 2.86 2.66 2.39 2.37 2.41 2.46 2.48 2.57 3.38 4.17 4.30 1.71 3.17 1.83 3.98 2.94 3.33 3.32 3.20 2.80 2.63 2.38 2.14
1.75 1.85 1.91 1.97 1.95 2.11 2.19 2.15 2.22 1.86 2.29 2.43 2.33 2.42 2.14 2.16 2.19 2.55 2.43 2.47 2.12 2.22 2.28 2.44 2.45 2.28 2.16 2.28 2.35 1.98 1.65 1.49 3.51 1.62 3.45 2.99 3.12 2.79 2.74 2.78 2.58 2.49 2.08
SL_Ratio
nan nan nan nan nan nan nan nan nan nan nan nan nan nan nan nan nan nan nan nan 2.5 2.1 nan nan nan nan 2.5 2.5 2.5 nan nan nan 3.3 2.8 2.6 2.6 2.5 2.8 2.5 2.9 2.7 2.7 2.6
nan nan nan nan nan nan 2.4 2.3 2.5 2.4 2.5 2.6 2.2 2.3 2.5 nan nan 2.9 2.5 2.3 2.8 2.7 2.4 2.5 2.7 nan 2.9 nan 2.5 2.5 2.8 2.5 3.0 4.2 2.9 2.8 2.9 3.0 3.2 3.0 2.9 2.8 2.8
nan nan 1.7 2.6 2.6 2.8 2.8 2.7 2.5 2.5 2.5 2.5 2.5 2.5 2.5 2.5 2.5 2.6 2.6 2.5 2.5 2.5 2.6 2.5 2.5 2.3 2.5 2.5 2.5 2.6 2.6 2.6 2.6 3.3 3.5 2.8 3.0 3.0 3.1 2.9 2.8 3.3 2.8
2.5 2.9 2.9 2.9 2.9 2.8 2.7 2.7 2.6 2.5 2.5 2.5 2.5 2.5 2.5 2.5 2.5 2.5 2.5 2.5 2.7 2.8 2.5 2.4 2.5 2.5 2.6 2.7 2.8 2.8 2.8 2.9 2.9 3.2 3.5 3.6 3.5 3.3 3.2 3.5 4.0 3.9 3.6
2.8 3.1 3.3 3.0 3.0 3.2 3.3 3.3 3.2 2.8 2.7 2.8 2.8 3.0 3.0 2.8 2.7 2.5 2.5 2.7 3.0 3.2 3.1 2.8 2.4 2.7 nan nan 2.7 2.8 3.1 3.3 3.3 3.6 4.0 4.1 4.4 4.7 4.6 3.6 4.4 4.5 4.7
3.3 4.1 3.6 3.4 3.3 3.7 4.1 4.7 4.5 4.5 3.7 3.7 3.6 3.4 3.4 2.8 nan nan 2.5 2.9 3.1 3.4 3.5 3.3 2.8 2.8 2.7 nan nan nan nan 3.3 3.8 3.7 3.9 4.2 4.8 4.0 4.0 4.2 4.7 5.1 5.9
4.1 3.7 3.7 4.0 4.6 4.8 4.6 4.6 5.0 5.1 3.9 4.3 4.4 3.8 3.7 3.1 nan nan nan 3.1 3.4 3.6 3.7 3.7 3.5 3.1 2.7 2.8 nan nan nan nan nan 3.5 4.2 3.9 5.4 4.5 4.8 5.8 5.5 5.3 5.7
4.2 4.4 4.3 4.3 4.9 4.8 5.1 5.3 4.5 4.2 3.9 4.0 3.8 3.9 3.8 2.7 nan nan nan 3.7 4.4 4.4 4.2 4.2 4.0 4.0 3.3 3.4 3.4 4.3 4.6 3.9 3.5 3.7 4.1 4.2 4.0 4.0 4.2 4.5 5.9 6.8 5.9
4.7 4.8 4.7 4.7 5.0 5.5 6.0 5.5 4.9 5.0 4.9 5.0 4.1 4.2 4.1 3.7 nan nan 3.9 4.4 4.6 4.4 4.2 3.5 3.8 3.9 nan nan 4.6 5.0 4.9 4.7 nan nan nan nan nan nan nan 4.6 4.6 4.9 5.2
5.3 5.1 5.0 4.9 4.9 6.3 6.0 6.2 4.9 4.5 4.7 4.3 4.9 4.7 3.4 4.1 nan nan nan 3.9 4.6 4.6 5.0 4.6 3.1 3.5 nan nan 4.8 5.2 5.7 5.5 5.5 4.7 5.3 5.3 nan nan nan 5.6 4.7 5.1 5.4
5.6 5.5 5.5 5.4 5.3 5.3 5.3 5.1 5.8 6.0 5.7 6.0 6.6 5.3 5.5 4.4 4.5 nan nan 4.2 4.3 5.0 5.0 5.1 4.7 nan nan nan nan 5.5 6.4 5.9 6.2 6.2 6.9 6.1 6.4 6.8 6.2 6.5 6.7 5.6 5.6
6.0 6.0 6.2 5.7 5.7 5.1 4.8 5.4 5.9 6.1 6.1 7.6 6.7 5.1 4.9 5.9 nan nan nan nan nan 4.9 5.6 5.2 5.0 nan nan nan 4.1 nan nan 3.9 4.8 5.2 5.5 6.5 8.1 8.1 8.2 8.5 9.6 8.5 7.8
5.5 5.1 5.2 5.6 5.1 5.3 4.3 4.6 3.7 3.8 4.0 5.2 4.7 4.8 4.8 5.0 4.3 nan nan nan nan 4.2 4.4 5.0 nan nan nan nan nan nan 3.0 5.0 5.2 5.5 6.8 8.1 8.3 8.5 10.1 9.3 10.2 10.1 10.2
4.8 6.0 6.3 5.6 4.6 5.2 3.7 3.5 3.6 4.2 4.6 4.5 4.6 4.6 4.3 4.4 4.2 3.7 3.2 2.8 3.2 3.7 nan 4.0 nan 4.3 nan nan 3.9 4.5 5.0 5.3 5.8 6.4 7.4 8.0 7.9 8.3 8.6 8.6 7.9 8.1 7.7
6.2 7.4 5.7 5.1 5.1 5.4 5.1 4.0 4.3 3.9 3.8 4.2 4.2 4.3 4.9 4.8 4.6 3.9 3.5 3.4 3.4 3.7 3.8 4.4 4.7 5.1 5.3 5.3 4.9 5.3 5.8 6.0 6.2 6.6 7.2 7.6 8.0 7.9 8.0 7.9 8.0 7.5 7.1
8.2 6.8 5.9 5.7 5.6 5.7 5.6 5.3 nan nan nan nan nan 3.4 3.3 nan nan nan nan nan nan nan 4.2 4.9 5.9 6.1 6.6 6.5 6.5 7.3 7.4 6.6 7.3 7.4 7.5 7.4 7.8 8.2 8.2 7.5 7.4 7.4 7.9
7.3 8.6 7.4 7.4 7.3 6.8 6.4 6.1 7.4 5.4 nan nan nan nan nan nan nan nan nan nan nan nan 4.3 5.3 6.0 6.4 6.2 6.4 6.4 7.6 8.2 8.1 9.3 7.9 8.2 8.0 7.9 7.6 7.3 7.7 7.8 7.8 7.3
7.7 3.0 6.6 6.7 6.4 6.4 6.2 6.1 5.9 6.4 6.9 6.8 nan nan nan nan nan nan nan nan 4.2 nan 4.4 5.1 5.9 5.8 6.3 6.4 6.6 8.0 8.3 8.4 8.4 8.0 7.9 7.2 7.0 7.0 7.2 7.1 7.4 7.1 7.3
8.5 7.8 7.6 7.3 7.1 6.7 6.8 7.0 6.6 7.2 7.4 7.3 7.7 6.1 3.7 nan nan nan nan 4.3 4.9 5.3 5.3 5.3 5.3 5.7 6.3 6.2 6.3 6.2 7.5 7.6 7.6 6.9 6.8 6.6 6.8 6.7 6.8 7.2 7.7 5.5 5.8
9.0 3.9 6.6 7.7 8.0 8.1 8.5 8.5 9.0 8.9 8.9 8.7 8.6 8.6 6.0 5.2 5.2 4.8 4.4 4.2 4.6 5.0 5.3 5.5 5.4 5.4 5.5 5.6 5.7 5.9 6.7 6.6 6.8 6.7 6.7 6.7 6.7 6.5 7.6 6.9 7.1 7.7 7.0
8.7 9.1 3.0 9.2 8.7 8.6 8.5 9.0 9.3 8.7 9.0 8.7 9.0 8.0 nan 6.2 7.4 6.0 5.7 5.5 5.0 5.0 5.8 5.6 5.6 5.3 5.2 5.1 5.5 5.7 6.4 7.3 6.8 6.6 6.4 6.5 6.5 6.5 6.8 7.6 7.1 7.0 7.1
8.9 8.8 8.9 8.8 9.7 9.5 9.0 9.8 9.5 9.5 9.7 10.0 10.3 8.9 nan 7.1 6.9 7.2 6.6 5.9 5.4 5.1 5.0 5.4 5.4 5.3 5.5 5.7 5.9 6.1 7.1 6.8 6.5 6.7 7.1 7.1 6.8 7.2 6.9 7.8 7.6 7.9 7.3
9.9 10.5 10.2 10.3 10.2 4.6 9.7 9.1 9.6 9.7 10.1 9.7 9.9 10.1 9.2 7.9 7.7 7.5 6.5 6.1 6.3 6.3 6.2 6.1 6.4 6.8 6.6 6.5 6.6 6.9 7.7 7.4 7.2 6.5 7.7 7.6 7.7 7.2 7.4 7.7 7.9 7.9 7.8
10.7 10.6 10.7 9.7 10.2 10.8 10.1 9.9 10.4 4.3 10.3 10.0 8.5 9.2 10.9 9.9 8.4 8.4 8.0 7.1 7.3 6.3 6.8 6.7 7.2 7.4 7.4 6.4 5.9 5.9 5.8 5.7 6.3 6.5 6.8 8.1 8.1 7.7 8.5 8.0 8.5 8.4 9.2
10.4 11.1 10.9 11.2 9.4 10.4 10.7 9.9 11.3 9.8 9.2 10.1 9.4 10.7 10.7 10.9 10.5 9.1 8.8 8.7 7.9 7.7 7.8 7.9 7.8 7.8 8.1 8.2 7.5 6.6 6.0 3.0 6.1 3.0 7.4 8.5 8.0 7.9 8.2 8.7 8.8 9.3 9.5
11.8 11.5 11.3 11.2 11.3 10.7 10.4 10.5 10.2 11.2 10.2 9.9 10.3 10.3 11.1 11.2 11.0 10.0 10.4 10.1 9.9 9.0 8.4 8.1 8.2 8.5 9.1 8.7 8.8 3.9 3.0 3.0 7.2 3.0 8.4 9.2 8.7 9.0 9.1 9.0 9.2 9.3 9.8